Home   Weather   Kelowna   Past weeks
Flag for Canada

Past Weather in Kelowna, British Columbia, Canada — Yesterday and Last 2 Weeks

Now
59 °F

Rain. Mostly cloudy.


Feels Like: 57 °F
Forecast: 74 / 52 °F
Wind: 9 mph from East

Location: Kelowna Airport

Current Time: Jun 25, 2019 at 5:10:46 pm

Latest Report: Jun 25, 2019 at 4:04 pm


Visibility: 8 mi

Pressure: 29.84 "Hg

Humidity: 77%

Dew Point: 52 °F

Location of KelownaLocation

Past Weather in Kelowna — Graph

°F

Kelowna Temperature Yesterday

Maximum temperature yesterday: 72 °F (at 4:00 pm)
Minimum temperature yesterday: 52 °F (at 11:00 pm)
Average temperature yesterday: 61 °F

High & Low Weather Summary for the Past Weeks

 TemperatureHumidityPressure
High93 °F (Jun 13, 2:00 pm)100% (Jun 21, 12:00 am)30.33 "Hg (Jun 21, 12:00 am)
Low45 °F (Jun 25, 2:00 am)15% (Jun 13, 4:00 pm)29.65 "Hg (Jun 13, 2:00 pm)
Average66 °F55%29.95 "Hg
* Reported Jun 10 3:00 pm — Jun 25 3:41 pm, Kelowna. Weather by CustomWeather, © 2019

Note: Actual official high and low records may vary slightly from our data, if they occured in-between our weather recording intervals... More about our weather records

Advertising

Kelowna Weather History for the Previous 24 Hours

Scroll right to see more
 ConditionsComfort  
Time TempWeatherWind HumidityBarometerVisibility
3:41 pm
Tue, Jun 25
66 °FThunderstorms. Partly sunny.20 mph49%29.82 "Hg9 mi
3:36 pm68 °FThunderstorms. Partly sunny.17 mph43%29.81 "Hg9 mi
3:08 pm77 °FThundershowers. Sunny.7 mph28%29.78 "Hg9 mi
2:00 pm72 °FSunny.No wind44%29.81 "Hg9 mi
1:00 pm72 °FPartly sunny.2 mph44%29.82 "Hg9 mi
12:00 pm68 °FScattered clouds.3 mph46%29.85 "Hg9 mi
11:00 am66 °FSunny.15 mph52%29.87 "Hg9 mi
10:00 am63 °FSunny.8 mph64%29.88 "Hg9 mi
9:00 am59 °FScattered clouds.No wind63%29.90 "Hg9 mi
8:00 am57 °FSunny.3 mph67%29.91 "Hg9 mi
7:00 am54 °FSunny.No wind77%29.92 "Hg9 mi
6:00 am46 °FSunny.No wind93%29.92 "Hg9 mi
5:00 am48 °FSunny.2 mph87%29.90 "Hg9 mi
4:00 am45 °FPassing clouds.2 mph100%29.91 "Hg9 mi
3:00 am46 °FClear.3 mph93%29.90 "Hg9 mi
2:00 am45 °FPassing clouds.5 mph93%29.90 "Hg9 mi
1:00 am52 °FClear.No wind82%29.90 "Hg9 mi
12:00 am52 °FClear.2 mph82%29.90 "Hg9 mi
11:00 pm
Mon, Jun 24
52 °FPassing clouds.2 mph82%29.90 "Hg9 mi
10:00 pm57 °FClear.5 mph67%29.88 "Hg9 mi
9:00 pm61 °FPassing clouds.9 mph59%29.87 "Hg9 mi
8:00 pm66 °FScattered clouds.18 mph46%29.86 "Hg9 mi
7:00 pm66 °FScattered clouds.15 mph46%29.86 "Hg9 mi
6:00 pm68 °FScattered clouds.21 mph43%29.86 "Hg9 mi
5:00 pm70 °FPartly sunny.20 mph38%29.86 "Hg9 mi
Weather by CustomWeather, © 2019

See weather overview